Hlavní strana
METAR-TAF:

METAR-TAF

Letiště :

Flemingsburg, Kentucky, Spojené státy americké

zeměpisná šířka: 38-32-30N, zeměpisná délka: 083-44-36W, výška: 278 m

Aktuální stav počasí

Zpráva byla vytvořena před 20 minutami, v 14:35 UTC
Západní vítr 6 kt, proměnlivý mezi západojihozápadním a severním
Teplota 5°C
Vlhkost vzduchu 52%
Tlak 1020 hPa
Viditelnost: 16.1 km
Jasno

METAR: KFGX 031435Z AUTO 27006KT 250V350 10SM CLR 05/M04 A3011 RMK AO2 T00531038

Čas: 09:55 (14:55 UTC)


TAF: chybějící

Stav a předpovědi počasí z více než 4 000 letišť (zprávy METAR a TAF).

Červené a žluté tečky na mapě představují dostupné meteorologické stanice.

Když kurzor umístíte na tečku, zobrazí se název stanice.

Pak kliknutím zobrazíte stav a předpověď počasí.

Chcete-li změnit mapu, kliknutím na zelené tlačítko se znaménkem +mapu přiblížíte, kliknutím na zelené tlačítko se znaménkem – mapu oddálíte a kliknutím na zelené šipky přejdete na sousední mapy.


METAR-TAF: